Al-Farabi 2

operational
NORAD ID: 43805 Int'l Des: 2018-099 Owner: KAZNU Country: KZ
LEOCIRCULARRETROGRADE

Über Al-Farabi 2

Beschreibung wird geladen...

Live-Position

3D-Globus wird geladen...

Nächste Überflüge

Höhenverlauf

Altitude vs Time

uPlot chart will show altitude changes over time

Zweizeiliger Elementsatz

1 43805U 18099AZ 26062.16571354 .00152181 00000-0 14771-2 0 9995
2 43805 97.4121 137.6467 0004519 229.7848 130.3017 15.65840070398336
Epoch: 3. März 2026 • Age: 39 hours

Aktueller Status

Höhe 375.5 km
Geschwindigkeit 7.68 km/s
Subsatellitenpunkt -5.16°S, 109.07°E
Startdatum 3. Dez. 2018
Alter 7.2 years
Typ other

Technische Details

Klassifizierung Payload
Masse 4.00 kg
Trockenmasse 4.00 kg
Gesamtmasse 4.00 kg
Länge 0.30 m
Durchmesser 0.10 m
Spannweite 0.30 m
Form Box
Hersteller KAZNU
Bus-Typ Cubesat 3U
Phasenstatus In Orbit
Besitzer/Staat KAZNU/KZ

Große Konstellationen

Loading constellations...